This demonstration page uses our WeatherBlox Daily Observations layout. Learn more.

Left ArrowRight Arrow

Hourly Observations for November 26, 2018

Temp ( °F °C ) Dew Point ( °F °C ) Humidity (%) Winds ( mph kmh ) Pressure ( in mb ) Visibility ( mi km ) Precip ( " mm )
12:53 am 00:53 Mostly Cloudy with Freezing Fog 20 -6.7 19 -7.2 96 96 E 10 17 30.26 1025 0 0 N/A
1:53 am 01:53 Mostly Cloudy with Freezing Fog 20 -6.7 19 -7.2 96 96 E 7 11 30.25 1024 1 1 N/A
2:00 am 02:00 Mostly Cloudy with Freezing Fog 19 -7 19 -7 100 100 ENE 8 13 30.33 1027 0 0 N/A
2:36 am 02:36 Mostly Cloudy with Freezing Fog 19 -7 19 -7 100 100 E 12 19 30.33 1027 1 1 N/A
2:53 am 02:53 Mostly Cloudy with Freezing Fog 20 -6.7 19 -7.2 96 96 E 7 11 30.24 1024 1 1 N/A
3:27 am 03:27 Mostly Cloudy with Freezing Fog 20 -6.7 19 -7.2 96 96 E 7 11 30.33 1027 0 0 N/A
3:34 am 03:34 Mostly Cloudy with Freezing Fog 19 -7 19 -7 100 100 E 7 11 30.33 1027 1 1 N/A
3:46 am 03:46 Mostly Cloudy with Freezing Fog 19 -7 19 -7 100 100 E 6 9 30.30 1026 0 0 N/A
3:53 am 03:53 Mostly Cloudy with Freezing Fog 20 -6.7 19 -7.2 96 96 ENE 7 11 30.22 1023 0 0 N/A
4:21 am 04:21 Mostly Cloudy with Freezing Fog 19 -7.2 18 -7.8 96 96 E 8 13 30.30 1026 1 1 N/A
4:45 am 04:45 Mostly Cloudy with Freezing Fog 20 -6.7 19 -7.2 96 96 ENE 8 13 30.30 1026 0 0 N/A
4:53 am 04:53 Mostly Cloudy with Freezing Fog 20 -6.7 19 -7.2 96 96 ENE 7 11 30.23 1024 0 0 N/A
5:04 am 05:04 Mostly Cloudy with Freezing Fog 19 -7 19 -7 100 100 ENE 9 15 30.30 1026 1 1 N/A
5:21 am 05:21 Mostly Cloudy with Freezing Fog 20 -6.7 19 -7.2 96 96 E 9 15 30.30 1026 0 0 N/A
5:38 am 05:38 Mostly Cloudy with Freezing Fog 19 -7 19 -7 100 100 E 8 13 30.30 1026 1 1 N/A
5:53 am 05:53 Mostly Cloudy with Freezing Fog 19 -7.2 18 -7.8 96 96 E 7 11 30.23 1024 1 1 N/A
6:53 am 06:53 Mostly Cloudy with Freezing Fog 19 -7.2 18 -7.8 96 96 E 8 13 30.23 1024 1 1 N/A
7:26 am 07:26 Mostly Cloudy with Mist and Fog 19 -7.2 17 -8.3 92 92 E 10 17 30.30 1026 1 2 N/A
7:41 am 07:41 Mostly Cloudy with Freezing Fog 19 -7.2 17 -8.3 92 92 E 7 11 30.30 1026 1 1 N/A
7:53 am 07:53 Mostly Cloudy with Freezing Fog 19 -7.2 18 -7.8 96 96 ENE 7 11 30.23 1024 0 0 N/A
8:01 am 08:01 Mostly Cloudy with Mist and Fog 19 -7.2 17 -8.3 92 92 E 10 17 30.27 1025 1 2 N/A
8:17 am 08:17 Mostly Cloudy with Freezing Fog 19 -7.2 18 -7.8 96 96 E 10 17 30.27 1025 1 1 N/A
8:36 am 08:36 Mostly Cloudy with Freezing Fog 19 -7 18 -8 93 93 E 10 17 30.27 1025 0 0 N/A
8:53 am 08:53 Mostly Cloudy with Freezing Fog 20 -6.7 18 -7.8 92 92 E 8 13 30.21 1023 1 1 N/A
9:27 am 09:27 Cloudy with Mist and Fog 20 -6.7 19 -7.2 96 96 E 9 15 30.24 1024 2 2 N/A
9:53 am 09:53 Cloudy with Mist and Fog 21 -6.1 20 -6.7 96 96 E 10 17 30.20 1023 2 2 N/A
10:03 am 10:03 Cloudy with Mist and Fog 21 -6.1 20 -6.7 96 96 E 10 17 30.24 1024 2 3 N/A
10:27 am 10:27 Cloudy 23 -5 21 -6.1 92 92 E 10 17 30.21 1023 7 11 N/A
10:49 am 10:49 Mostly Cloudy 25 -4 21 -6 86 86 E 10 17 30.18 1022 10 16 N/A
10:53 am 10:53 Cloudy 23 -5 22 -5.6 96 96 ENE 8 13 30.18 1022 10 16 N/A
11:53 am 11:53 Cloudy 25 -3.9 24 -4.4 96 96 E 12 19 30.14 1021 10 16 N/A
12:53 pm 12:53 Cloudy 27 -2.8 26 -3.3 96 96 ENE 9 15 30.11 1020 10 16 N/A
1:53 pm 13:53 Cloudy 29 -1.7 27 -2.8 92 92 ENE 12 19 30.08 1019 10 16 N/A
2:53 pm 14:53 Cloudy 29 -1.7 27 -2.8 92 92 E 10 17 30.07 1018 10 16 N/A
3:53 pm 15:53 Partly Cloudy 28 -2.2 27 -2.8 96 96 ENE 9 15 30.05 1018 10 16 N/A
4:53 pm 16:53 Clear 28 -2.2 27 -2.8 96 96 ENE 8 13 30.04 1017 10 16 N/A
5:53 pm 17:53 Clear 27 -2.8 26 -3.3 96 96 E 7 11 30.03 1017 10 16 N/A
6:53 pm 18:53 Clear 26 -3.3 25 -3.9 96 96 N N/A 30.01 1016 10 16 N/A
7:53 pm 19:53 Mostly Cloudy 26 -3.3 26 -3.3 100 100 N N/A 29.99 1016 10 16 N/A
8:53 pm 20:53 Mostly Clear 28 -2.2 26 -3.3 92 92 ENE 3 6 29.96 1014 10 16 N/A
9:53 pm 21:53 Mostly Cloudy 27 -2.8 26 -3.3 96 96 SE 6 9 29.93 1014 10 16 N/A
10:53 pm 22:53 Cloudy 34 1.1 28 -2.2 79 79 SW 8 13 29.90 1013 10 16 N/A
11:53 pm 23:53 Cloudy 44 6.7 22 -5.6 41 41 SW 17 28 29.84 1010 10 16 N/A

Powered by AerisWeather